Погода в Уршельском

Россия / Владимирская область     55°40′35″N   40°12′49″E
темп.,
°C
ветер,
м/с
пор.,
м/с
влажн.,
%
обл.,
%
осадки,
мм/ч
давл.,
гПа
погр.,
м
25 июля, вс
вс2500:00+14сз1156100 0.0 101710
03:00+11ссз226931 0.0 101935
06:00+12ссз11691 0.0 102044
09:00+20зюз124442 0.0 1020652
12:00+22з243157 0.0 10202555
15:00+21зюз343652 0.0 10211811
18:00+18зсз225287 0.0 102128
21:00+15зюз116690 0.0 102111
26 июля, пн
пн2600:00+14зюз116736 0.0 102211
03:00+15зюз1260100 0.0 102331
06:00+16юз2263100 0.0 102349
09:00+19з2354100 0.0 1023303
12:00+24з343536 0.0 10232078
15:00+23з344123 0.0 1022918
18:00+24з454220 0.0 10211041
21:00+17зюз226095 0.0 102230
27 июля, вт
вт2700:00+18зюз255576 0.0 1022104
03:00+14з227313 0.0 102223
06:00+16зсз23724 0.0 102295
09:00+24ссз12475 0.0 1021601
12:00+27сз233357 0.0 10202614
15:00+26зсз2344100 0.0 1019540
18:00+26з244017 0.0 1018702
21:00+19ююз22614 0.0 101812
28 июля, ср
ср2800:00+16в24754 0.1 101975
03:00+15юз22801 0.1 101821
06:00+16зюз23800 0.0 101782
09:00+24з225137 0.0 1016598
12:00+28юз2440100 0.0 10151891
15:00+25юз2453100 0.0 1013126
18:00+23ссз1266100 0.1 101276
21:00+17з2695100 2.4 1012237
29 июля, чт
чт2900:00+17вюв3697100 2.3 1010222
03:00+17юв3897100 2.9 1007355
06:00+17ююв2598100 1.8 1006315
09:00+19зюз2593100 1.9 1005490
12:00+19з4994100 1.1 1005773
15:00+18з41095100 2.0 1006558
18:00+21зсз512854 1.2 10051058
21:00+18з22950 1.5 100621